Temp
29 29 29 30 31 30 29 29 31 31 30 28 28 28 28 28 28 29 30 30 30 30 31 31 31 31 31 30 31 30 30 30 30 31 31 31 30 30 30 30 30 30 31 31 31 30 30 30 30 30 30 30 30 30 30 30 30 30 30 30 30 30 30 30 29 29 28 28 29
28 29 30 32 32 31 30 30 30 30 30 29 29 28 28 29 29 29 29 29 30 31 31 32 31 31 30 30 31 31 30 30 29 30 30 30 29 29 29 30 30 30 30 30 30 30 30 30 30 30 30 30 29 29 29 30 30 29 29 29 30 30 30 30 30 30 30 29 30
28 28 29 29 28 28 28 28 28 28 27 28 29 29 29 29 30 30 30 30 30 30 31 32 31 31 30 30 30 30 30 29 29 29 29 29 29 29 29 29 29 29 30 30 29 29 30 30 30 30 30 30 29 28 28 29 29 29 28 28 29 29 30 30 30 30 30 30 30
28 28 28 27 27 27 27 28 27 27 27 28 28 28 29 30 30 30 30 30 30 30 31 31 31 31 31 31 30 30 30 31 30 29 29 29 29 29 29 29 29 29 29 29 28 28 29 29 30 30 29 28 27 27 28 29 28 28 28 28 28 28 29 29 30 30 30 30 29
28 28 28 27 27 27 27 27 27 27 28 28 29 29 29 30 30 30 30 31 31 31 31 30 31 32 32 31 30 29 29 29 31 31 29 28 29 29 29 28 28 28 28 28 28 28 28 28 29 29 29 28 28 28 27 27 27 27 27 28 28 28 28 29 29 30 30 29 29
27 27 27 27 27 27 27 27 27 27 28 28 28 28 29 30 30 30 30 30 30 30 30 32 32 33 32 30 29 29 29 28 29 29 28 28 28 28 28 28 28 28 28 28 28 28 28 28 29 29 29 29 27 26 26 26 26 26 26 26 27 27 27 27 28 29 29 28 28
27 27 27 27 27 27 27 27 27 27 28 28 27 27 28 29 29 29 29 30 30 31 31 33 32 31 30 29 29 28 28 28 28 28 28 28 28 28 28 28 28 27 27 27 27 27 27 27 28 29 29 30 29 27 26 26 25 25 25 25 26 26 26 25 27 27 27 26 25
28 28 28 27 27 27 27 27 27 27 28 28 28 27 28 28 28 29 29 30 30 30 31 31 30 29 29 29 28 28 28 28 28 28 28 28 28 28 28 28 27 27 27 27 27 27 27 27 28 28 28 29 28 27 26 25 24 24 24 23 25 25 25 25 25 25 25 24 23
27 27 27 27 27 27 27 27 27 27 27 27 28 28 28 29 29 29 29 29 30 30 30 30 29 29 29 28 28 28 28 28 28 28 28 28 28 28 28 28 27 27 26 27 26 26 26 27 27 28 28 28 28 27 26 25 24 23 23 23 24 24 24 24 24 24 24 23 22
27 27 27 27 27 27 27 27 27 27 27 27 27 28 29 31 31 30 29 30 31 30 29 29 29 29 28 28 28 28 28 28 27 27 27 28 28 28 28 28 26 26 26 26 26 26 26 26 27 27 27 27 27 26 25 24 23 22 22 24 24 23 23 24 24 24 23 23 22
27 27 27 27 27 27 28 27 27 27 27 27 27 28 28 30 29 29 30 30 30 29 28 29 28 28 28 28 28 28 28 28 28 28 28 28 29 29 28 28 26 25 25 25 26 26 26 26 26 25 25 26 25 25 24 24 23 23 22 23 23 23 22 23 23 23 23 23 22
27 27 27 27 27 27 27 27 27 27 27 27 27 27 27 28 28 29 30 29 28 28 28 28 28 28 28 28 28 28 29 28 28 28 28 29 29 29 28 28 27 25 24 24 25 26 26 25 24 24 24 24 25 25 25 24 23 23 23 23 23 22 22 22 22 23 23 23 22
27 27 27 27 27 27 27 26 26 26 26 26 27 27 27 28 28 29 29 28 28 28 28 28 28 28 28 28 28 28 28 28 29 29 29 29 28 28 28 27 27 25 24 24 25 25 25 25 24 23 23 23 24 25 24 24 23 23 23 23 22 22 22 21 22 22 23 23 22
27 27 27 27 27 27 26 26 26 26 26 26 26 27 27 27 28 29 28 27 27 27 27 28 28 29 29 28 28 28 28 29 29 29 29 29 29 29 28 28 27 26 25 25 25 25 25 24 24 24 23 23 24 24 24 24 24 23 23 23 22 21 21 21 22 22 22 22 22
27 27 27 27 27 26 26 25 26 26 26 26 26 26 27 27 28 29 28 27 27 27 27 27 28 29 29 29 28 28 28 28 29 29 29 28 28 28 28 28 27 26 25 25 25 25 25 24 24 24 24 23 23 23 24 24 24 24 23 23 22 22 21 22 22 22 22 22 22
26 27 27 27 26 26 25 25 26 26 26 26 26 26 26 27 28 28 28 27 27 27 27 27 27 28 28 29 29 28 28 28 29 29 28 27 27 27 27 28 27 26 25 25 25 25 25 25 25 24 24 23 23 23 24 24 24 24 24 23 23 22 22 22 23 23 23 22 22
26 26 26 26 26 25 25 25 25 25 25 25 26 26 26 27 27 27 28 28 28 27 27 26 27 27 27 28 28 28 28 28 28 29 28 28 28 27 27 27 27 27 26 25 25 25 25 25 25 25 24 24 24 24 24 24 24 25 24 24 23 23 23 24 24 24 23 23 23
25 25 25 25 25 25 25 25 25 25 25 25 25 26 26 26 26 27 28 28 27 26 26 26 27 27 27 26 27 28 28 28 28 28 28 28 28 27 26 27 27 27 26 26 25 25 25 25 25 25 25 25 24 24 25 25 25 25 25 24 24 24 24 24 24 24 24 24 24
25 25 25 25 25 25 25 25 25 25 25 25 25 26 26 26 26 26 26 26 27 26 26 26 26 26 26 26 26 27 28 27 26 27 27 27 27 27 27 27 28 27 26 25 25 24 24 25 25 25 25 25 25 25 25 25 26 26 26 25 24 24 24 24 24 25 24 24 23
25 25 25 25 25 25 25 25 25 25 25 25 25 25 26 26 26 26 26 26 27 27 26 26 26 26 26 26 25 26 26 27 26 25 26 26 26 27 27 27 27 26 25 24 24 24 24 24 25 25 25 25 25 25 26 26 27 27 26 25 25 25 25 25 25 25 24 23 23
25 25 25 25 25 24 24 25 25 25 25 25 25 25 26 26 26 25 25 26 26 26 26 25 25 25 25 25 25 25 25 27 26 25 25 26 26 26 26 26 25 25 24 24 24 24 24 24 24 25 25 25 25 26 26 27 28 27 27 26 25 25 26 26 25 24 24 23 22
24 25 25 25 25 25 25 25 25 25 25 25 25 25 26 26 26 26 26 26 26 26 26 25 25 25 25 25 25 25 25 27 26 26 26 26 25 25 26 26 25 24 24 24 24 24 24 24 24 25 25 25 26 26 27 28 28 27 27 26 26 26 26 26 25 24 24 23 23
24 25 25 25 25 25 26 26 25 25 25 25 25 25 26 26 26 26 26 26 26 26 26 26 26 25 25 25 25 25 25 26 26 26 26 26 25 25 25 25 25 24 24 24 24 24 24 25 25 26 26 27 27 28 29 29 29 28 26 26 26 26 26 25 25 24 24 24 24
24 24 25 25 25 25 25 25 25 25 25 25 25 26 26 26 26 26 25 25 25 25 25 26 26 26 26 26 26 25 25 25 25 25 25 25 25 25 25 25 25 25 25 25 26 27 28 29 28 29 29 29 30 30 30 29 28 27 26 26 26 25 25 25 24 24 24 24 25
24 25 25 25 25 24 24 24 24 25 25 25 26 26 26 26 26 25 25 25 25 25 25 26 26 26 26 26 26 26 25 24 24 24 24 24 25 25 25 25 26 25 26 27 31 33 35 34 33 32 31 31 31 31 31 29 28 27 26 26 26 25 24 24 24 24 24 24 24
24 24 25 25 25 24 24 24 24 25 25 25 25 26 26 25 25 25 25 25 25 25 26 26 26 27 28 27 26 26 25 25 25 24 24 24 24 25 25 26 26 25 26 29 33 35 37 37 37 36 34 32 32 32 31 31 29 27 26 26 26 25 24 23 23 24 24 25 23
24 24 24 25 24 24 24 24 24 25 25 25 25 25 25 25 25 25 25 25 25 25 25 26 26 28 30 28 26 25 25 25 25 24 24 24 24 24 24 25 25 25 27 31 34 36 37 38 38 38 37 34 33 32 32 31 29 27 26 26 25 25 23 22 22 24 25 24 22
24 24 24 24 24 24 24 24 25 25 25 25 25 25 26 25 25 25 25 25 25 25 25 25 26 27 27 26 26 25 25 25 25 25 25 24 24 24 25 26 26 27 30 34 36 37 38 38 39 39 38 36 34 33 32 31 29 27 26 26 25 24 23 22 23 24 24 23 21
23 23 23 23 23 24 24 24 25 25 25 25 25 26 26 26 25 25 25 25 25 25 26 26 27 27 26 26 26 26 25 25 25 25 25 24 25 25 26 26 27 29 32 36 37 38 38 39 39 39 39 39 36 34 32 30 28 27 26 26 26 25 24 23 24 24 24 23 21
22 22 23 23 23 24 24 24 25 25 26 26 26 26 25 25 25 25 25 25 25 26 27 27 27 26 26 26 26 26 26 27 26 26 25 24 25 26 27 28 27 29 32 36 37 38 38 39 40 40 40 40 37 34 31 28 28 28 27 27 26 25 25 25 24 24 24 23 21
22 22 22 23 23 23 24 25 25 25 25 26 25 25 25 25 25 25 25 26 26 28 28 27 26 25 26 26 26 26 27 27 27 26 25 25 26 27 27 27 27 28 32 36 37 38 39 40 40 41 41 41 38 34 31 28 28 28 28 27 26 25 25 25 25 24 23 22 21
22 22 22 22 23 23 24 25 25 25 25 25 25 25 25 25 25 25 26 26 27 27 27 26 25 25 25 26 26 26 26 26 26 27 27 27 26 26 27 28 27 29 32 36 38 39 40 40 41 41 41 41 38 35 32 30 29 28 28 26 26 25 25 25 25 24 23 21 21
21 22 22 23 23 24 24 24 25 25 25 25 25 25 25 25 25 25 26 27 27 26 26 25 25 25 25 25 25 26 26 26 27 28 28 28 27 27 27 28 28 30 34 37 38 39 40 40 41 41 40 40 38 35 33 31 29 28 28 27 26 26 26 26 26 25 23 21 21
21 22 22 23 23 24 24 24 25 25 25 24 25 25 25 25 25 25 26 27 27 27 26 26 26 26 26 26 26 25 26 28 28 27 26 27 27 27 27 28 28 31 35 37 39 39 40 40 40 40 39 39 37 35 33 31 30 29 28 27 27 28 28 27 26 24 21 19 20
21 22 23 23 23 24 24 24 24 25 25 24 25 25 25 25 25 25 26 28 28 27 26 26 26 26 26 26 26 26 26 27 26 26 26 26 27 27 27 28 29 32 36 38 39 39 40 40 40 40 39 38 36 34 33 31 30 28 28 27 28 28 28 28 26 23 20 19 20
22 23 23 23 24 24 24 24 24 24 24 24 24 25 25 25 25 26 27 29 29 27 26 26 26 26 26 26 25 26 26 26 26 26 27 27 27 27 27 27 28 32 35 38 39 39 40 40 40 39 38 36 34 33 33 31 29 28 28 28 28 29 29 29 27 23 20 18 20
23 23 23 23 24 24 24 24 24 24 24 24 24 24 24 25 25 26 27 29 27 26 25 26 25 25 25 25 25 26 26 26 26 26 27 28 28 27 27 28 28 31 34 37 39 40 40 41 40 39 37 35 33 32 32 31 29 28 28 28 28 29 30 29 27 23 20 18 21
23 23 24 24 24 24 24 24 23 23 24 24 24 24 25 25 25 26 27 29 26 25 25 25 25 25 25 25 26 26 26 27 27 27 28 28 28 28 28 28 29 31 34 37 39 40 40 41 40 39 37 34 32 31 31 30 29 28 27 28 29 30 30 29 27 24 22 21 28
23 24 24 24 24 24 24 24 23 24 24 24 24 25 25 25 25 26 27 29 26 25 25 25 25 25 26 27 28 27 26 27 28 28 28 28 28 30 31 30 30 31 34 37 39 40 41 40 39 39 38 35 31 31 31 29 27 27 27 28 29 29 28 27 26 25 24 24 32
25 25 25 25 25 25 25 24 24 24 24 24 24 24 25 25 26 27 28 28 26 26 26 25 26 26 28 30 29 27 26 27 27 28 29 29 30 32 34 32 31 31 34 37 39 40 40 40 39 39 39 35 31 30 30 28 26 26 27 28 27 27 26 25 25 25 25 24 29
26 27 26 26 26 25 25 24 24 24 24 24 24 25 26 27 27 27 27 26 26 26 26 27 26 27 28 30 29 27 26 27 27 28 29 30 31 33 33 32 31 31 33 36 39 40 40 39 39 40 39 36 32 30 29 27 26 26 26 26 26 25 25 24 25 25 25 25 25
MSLP
1030.78 1030.82 1030.86 1030.86 1030.86 1030.86 1030.90 1030.90 1030.86 1030.82 1030.82 1030.78 1030.78 1030.78 1030.70 1030.62 1030.54 1030.42 1030.30 1030.18 1030.10 1029.98 1029.86 1029.70 1029.62 1029.50 1029.34 1029.26 1029.18 1029.06 1028.94 1028.86 1028.78 1028.70 1028.58 1028.50 1028.42 1028.34 1028.18 1028.06 1027.90 1027.74 1027.58 1027.42 1027.26 1027.14 1027.02 1026.86 1026.74 1026.54 1026.34 1026.14 1025.90 1025.70 1025.54 1025.38 1025.18 1025.02 1024.82 1024.70 1024.54 1024.34 1024.14 1023.90 1023.70 1023.46 1023.34 1023.14 1022.94
1030.70 1030.70 1030.70 1030.66 1030.66 1030.70 1030.78 1030.78 1030.78 1030.74 1030.74 1030.66 1030.62 1030.62 1030.58 1030.50 1030.42 1030.34 1030.18 1030.10 1029.98 1029.86 1029.74 1029.58 1029.50 1029.38 1029.30 1029.18 1029.06 1028.98 1028.90 1028.78 1028.66 1028.62 1028.50 1028.46 1028.34 1028.18 1028.06 1027.94 1027.82 1027.66 1027.50 1027.34 1027.22 1027.10 1026.94 1026.82 1026.66 1026.46 1026.18 1025.94 1025.78 1025.62 1025.46 1025.26 1025.14 1024.94 1024.78 1024.62 1024.50 1024.34 1024.10 1023.90 1023.62 1023.38 1023.18 1022.98 1022.78
1030.62 1030.62 1030.62 1030.62 1030.62 1030.66 1030.70 1030.70 1030.70 1030.70 1030.62 1030.62 1030.54 1030.50 1030.42 1030.34 1030.30 1030.18 1030.10 1029.98 1029.86 1029.78 1029.62 1029.50 1029.34 1029.26 1029.18 1029.06 1028.94 1028.90 1028.78 1028.66 1028.62 1028.50 1028.46 1028.34 1028.22 1028.10 1027.98 1027.86 1027.74 1027.58 1027.42 1027.30 1027.18 1027.06 1026.90 1026.78 1026.58 1026.34 1026.10 1025.90 1025.70 1025.50 1025.34 1025.14 1025.02 1024.90 1024.78 1024.62 1024.50 1024.30 1024.10 1023.86 1023.58 1023.34 1023.10 1022.90 1022.74
1030.50 1030.50 1030.50 1030.54 1030.58 1030.62 1030.62 1030.62 1030.62 1030.62 1030.54 1030.50 1030.46 1030.38 1030.34 1030.26 1030.18 1030.10 1029.98 1029.86 1029.74 1029.62 1029.54 1029.42 1029.26 1029.14 1029.06 1028.94 1028.86 1028.78 1028.66 1028.58 1028.50 1028.42 1028.34 1028.26 1028.18 1028.06 1027.90 1027.78 1027.62 1027.50 1027.34 1027.22 1027.10 1026.98 1026.82 1026.70 1026.50 1026.30 1026.06 1025.82 1025.62 1025.46 1025.26 1025.06 1024.94 1024.82 1024.70 1024.58 1024.46 1024.34 1024.10 1023.86 1023.58 1023.34 1023.14 1022.90 1022.74
1030.34 1030.34 1030.38 1030.42 1030.46 1030.46 1030.50 1030.50 1030.50 1030.50 1030.46 1030.38 1030.34 1030.30 1030.22 1030.18 1030.06 1029.98 1029.90 1029.78 1029.62 1029.50 1029.42 1029.34 1029.18 1029.06 1028.94 1028.86 1028.78 1028.70 1028.62 1028.50 1028.42 1028.34 1028.26 1028.18 1028.06 1027.90 1027.78 1027.66 1027.50 1027.38 1027.26 1027.14 1027.06 1026.90 1026.74 1026.62 1026.50 1026.22 1025.98 1025.78 1025.50 1025.34 1025.18 1025.06 1024.90 1024.78 1024.62 1024.50 1024.38 1024.22 1024.06 1023.86 1023.62 1023.38 1023.18 1022.98 1022.78
1030.22 1030.22 1030.26 1030.30 1030.30 1030.34 1030.34 1030.34 1030.34 1030.34 1030.34 1030.30 1030.26 1030.22 1030.18 1030.06 1029.98 1029.90 1029.78 1029.66 1029.50 1029.34 1029.26 1029.18 1029.06 1028.90 1028.82 1028.78 1028.70 1028.62 1028.54 1028.46 1028.34 1028.26 1028.18 1028.06 1027.90 1027.78 1027.66 1027.58 1027.42 1027.30 1027.14 1027.06 1026.90 1026.78 1026.66 1026.58 1026.38 1026.18 1025.90 1025.66 1025.42 1025.22 1025.06 1024.98 1024.86 1024.74 1024.62 1024.46 1024.30 1024.14 1023.98 1023.82 1023.62 1023.38 1023.18 1022.98 1022.78
1030.10 1030.14 1030.18 1030.18 1030.18 1030.18 1030.26 1030.22 1030.26 1030.22 1030.18 1030.18 1030.18 1030.14 1030.06 1029.94 1029.90 1029.78 1029.62 1029.50 1029.38 1029.26 1029.14 1029.02 1028.90 1028.86 1028.78 1028.74 1028.62 1028.54 1028.42 1028.34 1028.22 1028.14 1028.06 1027.94 1027.82 1027.66 1027.54 1027.42 1027.30 1027.18 1027.06 1026.90 1026.82 1026.74 1026.62 1026.50 1026.34 1026.10 1025.86 1025.62 1025.38 1025.18 1025.02 1024.94 1024.82 1024.70 1024.54 1024.38 1024.18 1024.06 1023.90 1023.78 1023.58 1023.34 1023.14 1022.94 1022.78
1029.98 1030.02 1030.06 1030.06 1030.06 1030.10 1030.10 1030.10 1030.14 1030.14 1030.10 1030.06 1030.06 1030.02 1029.90 1029.82 1029.74 1029.62 1029.50 1029.34 1029.26 1029.18 1029.06 1028.90 1028.90 1028.82 1028.74 1028.62 1028.54 1028.46 1028.34 1028.22 1028.14 1028.02 1027.90 1027.78 1027.70 1027.54 1027.42 1027.30 1027.18 1027.06 1026.90 1026.78 1026.70 1026.62 1026.50 1026.38 1026.22 1026.06 1025.82 1025.62 1025.38 1025.18 1024.98 1024.86 1024.78 1024.62 1024.46 1024.26 1024.06 1023.90 1023.78 1023.62 1023.50 1023.34 1023.14 1022.90 1022.70
1029.90 1029.90 1029.90 1029.94 1029.94 1029.94 1029.98 1029.98 1029.98 1030.02 1030.02 1029.94 1029.90 1029.86 1029.78 1029.66 1029.58 1029.50 1029.34 1029.22 1029.10 1029.02 1028.90 1028.82 1028.78 1028.70 1028.62 1028.54 1028.46 1028.34 1028.22 1028.14 1028.02 1027.90 1027.78 1027.66 1027.54 1027.46 1027.30 1027.14 1027.02 1026.90 1026.78 1026.62 1026.58 1026.50 1026.42 1026.30 1026.14 1025.94 1025.78 1025.54 1025.34 1025.14 1024.94 1024.78 1024.66 1024.50 1024.34 1024.14 1023.90 1023.74 1023.62 1023.46 1023.34 1023.22 1023.06 1022.82 1022.62
1029.78 1029.78 1029.78 1029.82 1029.82 1029.78 1029.78 1029.78 1029.82 1029.82 1029.82 1029.82 1029.78 1029.66 1029.62 1029.50 1029.38 1029.30 1029.22 1029.10 1028.98 1028.90 1028.82 1028.78 1028.66 1028.62 1028.54 1028.46 1028.34 1028.22 1028.14 1028.02 1027.90 1027.78 1027.62 1027.50 1027.38 1027.26 1027.14 1027.02 1026.90 1026.78 1026.66 1026.54 1026.46 1026.34 1026.30 1026.18 1026.02 1025.82 1025.62 1025.50 1025.30 1025.10 1024.90 1024.70 1024.54 1024.38 1024.18 1023.98 1023.78 1023.62 1023.46 1023.26 1023.18 1023.06 1022.90 1022.70 1022.50
1029.62 1029.66 1029.66 1029.70 1029.66 1029.62 1029.66 1029.66 1029.70 1029.70 1029.70 1029.66 1029.62 1029.54 1029.50 1029.42 1029.30 1029.18 1029.10 1028.98 1028.90 1028.78 1028.74 1028.66 1028.62 1028.54 1028.46 1028.34 1028.22 1028.10 1027.98 1027.90 1027.74 1027.62 1027.50 1027.34 1027.22 1027.10 1026.98 1026.90 1026.78 1026.62 1026.54 1026.42 1026.34 1026.22 1026.14 1026.02 1025.86 1025.70 1025.50 1025.34 1025.18 1024.98 1024.78 1024.58 1024.38 1024.18 1024.02 1023.78 1023.62 1023.46 1023.26 1023.06 1022.94 1022.86 1022.74 1022.54 1022.34
1029.50 1029.50 1029.50 1029.50 1029.50 1029.50 1029.50 1029.54 1029.58 1029.58 1029.54 1029.54 1029.50 1029.42 1029.34 1029.30 1029.18 1029.06 1028.98 1028.90 1028.82 1028.74 1028.62 1028.58 1028.50 1028.46 1028.34 1028.22 1028.10 1027.98 1027.82 1027.74 1027.62 1027.50 1027.34 1027.18 1027.06 1026.94 1026.86 1026.78 1026.62 1026.54 1026.46 1026.34 1026.18 1026.10 1025.98 1025.86 1025.74 1025.58 1025.38 1025.18 1025.02 1024.82 1024.62 1024.38 1024.18 1024.02 1023.82 1023.62 1023.42 1023.30 1023.10 1022.90 1022.78 1022.66 1022.54 1022.34 1022.18
1029.34 1029.34 1029.34 1029.34 1029.34 1029.38 1029.38 1029.38 1029.42 1029.42 1029.42 1029.38 1029.34 1029.30 1029.22 1029.14 1029.06 1028.98 1028.90 1028.78 1028.74 1028.66 1028.58 1028.46 1028.38 1028.30 1028.18 1028.10 1028.02 1027.86 1027.74 1027.62 1027.50 1027.34 1027.18 1027.02 1026.90 1026.78 1026.70 1026.62 1026.50 1026.42 1026.34 1026.18 1026.06 1025.90 1025.78 1025.66 1025.54 1025.42 1025.22 1025.06 1024.82 1024.62 1024.42 1024.22 1024.06 1023.82 1023.62 1023.42 1023.22 1023.06 1022.94 1022.78 1022.62 1022.50 1022.34 1022.18 1021.98
1029.18 1029.18 1029.22 1029.22 1029.22 1029.26 1029.26 1029.30 1029.26 1029.30 1029.30 1029.26 1029.22 1029.18 1029.06 1029.06 1028.94 1028.90 1028.82 1028.74 1028.62 1028.58 1028.50 1028.38 1028.30 1028.18 1028.06 1027.98 1027.90 1027.74 1027.62 1027.50 1027.30 1027.14 1027.02 1026.86 1026.74 1026.66 1026.58 1026.50 1026.34 1026.26 1026.18 1026.02 1025.86 1025.74 1025.62 1025.50 1025.34 1025.18 1025.06 1024.86 1024.62 1024.38 1024.18 1024.02 1023.82 1023.62 1023.42 1023.26 1023.06 1022.90 1022.78 1022.62 1022.50 1022.34 1022.22 1022.06 1021.82
1029.02 1029.06 1029.06 1029.10 1029.10 1029.14 1029.14 1029.18 1029.18 1029.18 1029.18 1029.14 1029.10 1029.06 1028.98 1028.90 1028.86 1028.78 1028.74 1028.62 1028.54 1028.50 1028.38 1028.26 1028.18 1028.06 1027.94 1027.90 1027.78 1027.62 1027.50 1027.34 1027.18 1027.06 1026.86 1026.74 1026.62 1026.50 1026.42 1026.30 1026.18 1026.10 1025.98 1025.82 1025.70 1025.54 1025.42 1025.30 1025.14 1024.98 1024.86 1024.62 1024.42 1024.18 1023.94 1023.78 1023.58 1023.38 1023.18 1023.06 1022.86 1022.70 1022.58 1022.50 1022.38 1022.26 1022.10 1021.90 1021.70
1028.90 1028.90 1028.94 1028.94 1028.98 1028.98 1029.02 1029.06 1029.06 1029.06 1029.06 1029.02 1028.94 1028.90 1028.90 1028.82 1028.78 1028.70 1028.62 1028.50 1028.46 1028.34 1028.26 1028.18 1028.06 1027.98 1027.86 1027.74 1027.62 1027.50 1027.34 1027.18 1027.06 1026.90 1026.74 1026.62 1026.50 1026.34 1026.26 1026.14 1026.02 1025.90 1025.78 1025.62 1025.50 1025.34 1025.18 1025.06 1024.90 1024.78 1024.62 1024.46 1024.18 1023.94 1023.70 1023.46 1023.30 1023.10 1022.90 1022.74 1022.58 1022.50 1022.38 1022.30 1022.26 1022.14 1021.94 1021.74 1021.46
1028.78 1028.78 1028.82 1028.82 1028.86 1028.86 1028.90 1028.90 1028.90 1028.90 1028.90 1028.90 1028.86 1028.78 1028.78 1028.74 1028.66 1028.62 1028.50 1028.38 1028.30 1028.22 1028.14 1028.06 1027.94 1027.82 1027.70 1027.58 1027.50 1027.34 1027.22 1027.06 1026.90 1026.78 1026.62 1026.46 1026.34 1026.22 1026.10 1025.94 1025.82 1025.66 1025.54 1025.46 1025.34 1025.14 1024.98 1024.82 1024.66 1024.54 1024.38 1024.18 1023.98 1023.70 1023.46 1023.22 1023.02 1022.78 1022.58 1022.38 1022.26 1022.18 1022.18 1022.18 1022.10 1021.98 1021.78 1021.46 1021.22
1028.62 1028.62 1028.66 1028.70 1028.70 1028.74 1028.78 1028.78 1028.78 1028.78 1028.78 1028.78 1028.74 1028.70 1028.62 1028.58 1028.54 1028.50 1028.34 1028.26 1028.18 1028.10 1028.02 1027.90 1027.78 1027.70 1027.58 1027.50 1027.34 1027.22 1027.10 1026.94 1026.78 1026.62 1026.46 1026.34 1026.18 1026.06 1025.90 1025.74 1025.62 1025.46 1025.34 1025.22 1025.10 1024.90 1024.78 1024.58 1024.42 1024.30 1024.14 1023.90 1023.70 1023.46 1023.18 1022.94 1022.70 1022.46 1022.18 1022.02 1021.90 1021.90 1021.98 1022.02 1021.90 1021.70 1021.46 1021.18 1020.94
1028.50 1028.50 1028.50 1028.54 1028.58 1028.62 1028.62 1028.62 1028.62 1028.66 1028.62 1028.62 1028.58 1028.54 1028.50 1028.42 1028.38 1028.30 1028.22 1028.10 1028.02 1027.94 1027.86 1027.74 1027.62 1027.50 1027.42 1027.34 1027.18 1027.06 1026.90 1026.78 1026.66 1026.50 1026.34 1026.18 1026.06 1025.90 1025.74 1025.54 1025.34 1025.22 1025.14 1025.02 1024.90 1024.74 1024.54 1024.38 1024.18 1024.06 1023.86 1023.62 1023.38 1023.14 1022.86 1022.58 1022.34 1022.02 1021.78 1021.62 1021.62 1021.74 1021.78 1021.74 1021.54 1021.30 1021.06 1020.90 1020.74
1028.34 1028.34 1028.38 1028.42 1028.42 1028.46 1028.50 1028.50 1028.50 1028.50 1028.50 1028.46 1028.46 1028.38 1028.34 1028.30 1028.18 1028.14 1028.06 1027.98 1027.86 1027.78 1027.70 1027.62 1027.46 1027.34 1027.26 1027.18 1027.06 1026.90 1026.78 1026.62 1026.50 1026.34 1026.18 1026.06 1025.90 1025.70 1025.50 1025.38 1025.18 1025.06 1024.90 1024.82 1024.66 1024.50 1024.34 1024.18 1024.02 1023.86 1023.62 1023.34 1023.06 1022.78 1022.46 1022.18 1021.86 1021.58 1021.38 1021.34 1021.46 1021.50 1021.50 1021.34 1021.14 1020.94 1020.78 1020.62 1020.50
1028.18 1028.18 1028.18 1028.22 1028.30 1028.34 1028.34 1028.34 1028.34 1028.34 1028.34 1028.30 1028.30 1028.26 1028.18 1028.10 1028.06 1027.98 1027.90 1027.78 1027.66 1027.58 1027.50 1027.42 1027.34 1027.22 1027.14 1026.98 1026.90 1026.74 1026.58 1026.42 1026.34 1026.18 1026.02 1025.86 1025.70 1025.50 1025.34 1025.22 1025.06 1024.90 1024.74 1024.62 1024.42 1024.26 1024.10 1023.94 1023.78 1023.62 1023.34 1023.06 1022.74 1022.42 1022.06 1021.78 1021.46 1021.18 1021.10 1021.18 1021.22 1021.26 1021.18 1021.02 1020.82 1020.66 1020.50 1020.38 1020.22
1027.98 1028.02 1028.06 1028.06 1028.10 1028.14 1028.18 1028.18 1028.18 1028.18 1028.18 1028.18 1028.14 1028.06 1028.02 1027.94 1027.86 1027.78 1027.70 1027.58 1027.50 1027.42 1027.34 1027.26 1027.18 1027.06 1026.94 1026.82 1026.70 1026.54 1026.38 1026.18 1026.10 1025.94 1025.78 1025.62 1025.50 1025.30 1025.14 1025.02 1024.90 1024.70 1024.54 1024.38 1024.18 1024.06 1023.90 1023.74 1023.54 1023.26 1022.98 1022.70 1022.34 1021.98 1021.66 1021.34 1021.06 1020.90 1020.82 1020.86 1020.90 1020.90 1020.82 1020.70 1020.54 1020.38 1020.22 1020.06 1019.90
1027.78 1027.82 1027.90 1027.90 1027.94 1027.94 1027.98 1028.02 1028.02 1028.02 1028.02 1028.02 1027.98 1027.90 1027.82 1027.78 1027.66 1027.62 1027.50 1027.42 1027.34 1027.22 1027.14 1027.06 1026.94 1026.86 1026.74 1026.62 1026.50 1026.34 1026.18 1026.02 1025.82 1025.70 1025.54 1025.42 1025.26 1025.14 1024.94 1024.82 1024.70 1024.54 1024.34 1024.18 1023.94 1023.82 1023.66 1023.46 1023.18 1022.86 1022.54 1022.22 1021.90 1021.54 1021.22 1020.94 1020.66 1020.50 1020.46 1020.50 1020.62 1020.62 1020.54 1020.42 1020.26 1020.14 1019.94 1019.74 1019.54
1027.62 1027.70 1027.74 1027.78 1027.78 1027.82 1027.86 1027.90 1027.90 1027.90 1027.86 1027.86 1027.78 1027.74 1027.66 1027.58 1027.50 1027.38 1027.34 1027.22 1027.18 1027.06 1026.98 1026.90 1026.78 1026.66 1026.54 1026.38 1026.26 1026.14 1025.98 1025.82 1025.66 1025.50 1025.30 1025.18 1025.06 1024.90 1024.78 1024.62 1024.50 1024.34 1024.10 1023.90 1023.74 1023.54 1023.34 1023.02 1022.66 1022.34 1021.98 1021.70 1021.42 1021.10 1020.82 1020.62 1020.34 1020.18 1020.14 1020.26 1020.38 1020.38 1020.34 1020.18 1020.06 1019.86 1019.66 1019.46 1019.22
1027.50 1027.54 1027.62 1027.62 1027.66 1027.70 1027.70 1027.74 1027.74 1027.74 1027.70 1027.66 1027.58 1027.54 1027.50 1027.38 1027.30 1027.22 1027.18 1027.06 1027.02 1026.90 1026.82 1026.70 1026.54 1026.42 1026.34 1026.18 1026.06 1025.90 1025.78 1025.62 1025.50 1025.34 1025.18 1024.98 1024.86 1024.74 1024.58 1024.46 1024.26 1024.06 1023.86 1023.66 1023.38 1023.06 1022.78 1022.46 1022.14 1021.82 1021.50 1021.26 1021.02 1020.74 1020.50 1020.30 1020.10 1020.02 1020.06 1020.18 1020.26 1020.26 1020.14 1020.02 1019.86 1019.62 1019.46 1019.26 1019.06
1027.38 1027.42 1027.46 1027.46 1027.50 1027.54 1027.58 1027.58 1027.62 1027.58 1027.50 1027.46 1027.42 1027.34 1027.30 1027.18 1027.10 1027.06 1027.02 1026.90 1026.82 1026.74 1026.62 1026.50 1026.38 1026.22 1026.06 1025.94 1025.82 1025.66 1025.54 1025.42 1025.30 1025.18 1025.06 1024.86 1024.70 1024.54 1024.38 1024.18 1024.02 1023.82 1023.62 1023.38 1023.06 1022.74 1022.34 1021.98 1021.66 1021.34 1021.10 1020.86 1020.62 1020.42 1020.18 1019.90 1019.82 1019.90 1020.06 1020.14 1020.14 1020.06 1019.94 1019.82 1019.66 1019.46 1019.26 1019.06 1018.90
1027.26 1027.30 1027.30 1027.30 1027.34 1027.38 1027.38 1027.38 1027.38 1027.38 1027.34 1027.30 1027.22 1027.18 1027.10 1027.02 1026.94 1026.90 1026.86 1026.78 1026.66 1026.54 1026.42 1026.30 1026.18 1026.06 1025.90 1025.74 1025.62 1025.54 1025.38 1025.22 1025.10 1024.98 1024.86 1024.70 1024.54 1024.34 1024.18 1023.94 1023.78 1023.62 1023.38 1023.10 1022.78 1022.38 1022.02 1021.66 1021.30 1020.94 1020.66 1020.50 1020.22 1020.06 1019.86 1019.70 1019.70 1019.86 1019.98 1019.98 1019.94 1019.90 1019.78 1019.70 1019.54 1019.34 1019.14 1018.90 1018.78
1027.10 1027.10 1027.14 1027.18 1027.22 1027.22 1027.22 1027.22 1027.22 1027.18 1027.14 1027.06 1027.06 1026.98 1026.90 1026.82 1026.78 1026.78 1026.66 1026.62 1026.50 1026.34 1026.26 1026.14 1025.98 1025.82 1025.70 1025.62 1025.50 1025.34 1025.18 1025.06 1024.90 1024.78 1024.62 1024.50 1024.34 1024.18 1023.98 1023.74 1023.50 1023.34 1023.06 1022.74 1022.42 1022.06 1021.70 1021.34 1021.02 1020.62 1020.30 1020.02 1019.78 1019.62 1019.46 1019.42 1019.50 1019.66 1019.74 1019.74 1019.70 1019.66 1019.62 1019.58 1019.38 1019.18 1019.02 1018.82 1018.70
1026.94 1026.98 1027.02 1027.10 1027.10 1027.06 1027.06 1027.06 1027.06 1027.02 1026.94 1026.90 1026.82 1026.78 1026.70 1026.70 1026.62 1026.58 1026.50 1026.46 1026.34 1026.18 1026.06 1025.94 1025.78 1025.62 1025.54 1025.50 1025.34 1025.18 1025.06 1024.90 1024.70 1024.58 1024.46 1024.34 1024.18 1023.98 1023.78 1023.54 1023.30 1023.06 1022.78 1022.46 1022.14 1021.78 1021.46 1021.06 1020.70 1020.30 1019.90 1019.58 1019.38 1019.26 1019.18 1019.18 1019.26 1019.34 1019.38 1019.42 1019.42 1019.42 1019.42 1019.34 1019.18 1019.02 1018.86 1018.74 1018.62
1026.82 1026.90 1026.90 1026.98 1026.98 1026.94 1026.90 1026.90 1026.86 1026.78 1026.78 1026.74 1026.66 1026.62 1026.58 1026.54 1026.50 1026.46 1026.38 1026.26 1026.18 1026.06 1025.90 1025.74 1025.62 1025.50 1025.42 1025.30 1025.18 1025.06 1024.90 1024.66 1024.50 1024.38 1024.30 1024.18 1024.06 1023.78 1023.54 1023.30 1023.10 1022.86 1022.54 1022.22 1021.90 1021.58 1021.18 1020.78 1020.34 1019.90 1019.46 1019.10 1019.02 1018.94 1018.90 1018.90 1018.94 1018.98 1019.02 1019.06 1019.10 1019.14 1019.14 1019.06 1018.98 1018.86 1018.74 1018.58 1018.46
1026.74 1026.78 1026.82 1026.82 1026.82 1026.78 1026.78 1026.70 1026.70 1026.62 1026.62 1026.54 1026.54 1026.50 1026.46 1026.38 1026.38 1026.30 1026.18 1026.06 1025.98 1025.78 1025.62 1025.50 1025.50 1025.42 1025.30 1025.10 1025.02 1024.90 1024.70 1024.50 1024.34 1024.22 1024.14 1024.02 1023.82 1023.62 1023.38 1023.10 1022.90 1022.62 1022.34 1022.06 1021.70 1021.34 1020.90 1020.50 1020.02 1019.54 1019.14 1018.86 1018.78 1018.78 1018.74 1018.66 1018.62 1018.62 1018.62 1018.70 1018.82 1018.90 1018.90 1018.86 1018.78 1018.70 1018.58 1018.42 1018.34
1026.62 1026.66 1026.70 1026.70 1026.66 1026.62 1026.62 1026.54 1026.50 1026.50 1026.46 1026.42 1026.38 1026.34 1026.30 1026.26 1026.18 1026.06 1025.98 1025.90 1025.78 1025.62 1025.50 1025.42 1025.34 1025.22 1025.10 1024.98 1024.86 1024.74 1024.58 1024.42 1024.26 1024.06 1023.94 1023.82 1023.66 1023.46 1023.26 1022.98 1022.74 1022.46 1022.18 1021.82 1021.46 1021.06 1020.62 1020.18 1019.70 1019.30 1019.02 1018.86 1018.78 1018.62 1018.54 1018.54 1018.50 1018.38 1018.38 1018.50 1018.66 1018.78 1018.78 1018.70 1018.62 1018.54 1018.42 1018.30 1018.18
1026.50 1026.54 1026.54 1026.58 1026.50 1026.50 1026.42 1026.38 1026.34 1026.30 1026.26 1026.22 1026.18 1026.18 1026.10 1026.06 1025.98 1025.90 1025.82 1025.70 1025.58 1025.50 1025.42 1025.30 1025.18 1025.06 1024.94 1024.86 1024.70 1024.54 1024.42 1024.30 1024.10 1023.90 1023.78 1023.62 1023.50 1023.34 1023.10 1022.82 1022.58 1022.26 1021.90 1021.58 1021.18 1020.78 1020.34 1019.90 1019.46 1019.18 1019.06 1018.94 1018.78 1018.62 1018.50 1018.42 1018.34 1018.26 1018.30 1018.50 1018.66 1018.66 1018.58 1018.50 1018.46 1018.38 1018.26 1018.14 1018.02
1026.34 1026.38 1026.42 1026.34 1026.34 1026.26 1026.22 1026.22 1026.18 1026.18 1026.10 1026.10 1026.06 1026.02 1025.94 1025.90 1025.86 1025.74 1025.62 1025.50 1025.38 1025.30 1025.18 1025.06 1024.98 1024.86 1024.78 1024.62 1024.54 1024.42 1024.26 1024.06 1023.90 1023.78 1023.66 1023.54 1023.38 1023.18 1022.98 1022.70 1022.38 1022.06 1021.70 1021.34 1020.94 1020.54 1020.10 1019.74 1019.34 1019.18 1019.06 1018.94 1018.78 1018.62 1018.50 1018.34 1018.22 1018.26 1018.38 1018.58 1018.62 1018.58 1018.50 1018.38 1018.34 1018.22 1018.14 1018.06 1017.86
1026.18 1026.22 1026.22 1026.18 1026.14 1026.10 1026.06 1026.06 1026.06 1025.98 1025.94 1025.90 1025.90 1025.82 1025.78 1025.70 1025.66 1025.58 1025.46 1025.30 1025.18 1025.06 1024.98 1024.90 1024.78 1024.70 1024.58 1024.50 1024.34 1024.26 1024.14 1023.98 1023.82 1023.66 1023.50 1023.38 1023.22 1023.02 1022.78 1022.50 1022.18 1021.82 1021.46 1021.10 1020.78 1020.38 1019.94 1019.54 1019.26 1019.10 1019.06 1018.98 1018.82 1018.66 1018.50 1018.34 1018.34 1018.42 1018.54 1018.62 1018.58 1018.50 1018.38 1018.30 1018.18 1018.06 1017.98 1017.90 1017.70
1025.98 1026.02 1026.02 1025.98 1025.94 1025.94 1025.90 1025.90 1025.86 1025.82 1025.78 1025.78 1025.74 1025.66 1025.62 1025.54 1025.50 1025.38 1025.26 1025.10 1025.06 1024.94 1024.86 1024.74 1024.62 1024.58 1024.46 1024.34 1024.22 1024.10 1023.98 1023.82 1023.70 1023.54 1023.34 1023.22 1023.06 1022.90 1022.66 1022.34 1022.02 1021.62 1021.26 1020.90 1020.58 1020.18 1019.78 1019.34 1019.14 1019.06 1019.06 1018.90 1018.82 1018.66 1018.54 1018.50 1018.50 1018.58 1018.62 1018.58 1018.50 1018.34 1018.26 1018.14 1018.06 1017.94 1017.86 1017.78 1017.62
1025.74 1025.78 1025.78 1025.78 1025.78 1025.74 1025.70 1025.70 1025.66 1025.66 1025.62 1025.58 1025.50 1025.50 1025.46 1025.38 1025.34 1025.18 1025.10 1024.98 1024.90 1024.86 1024.74 1024.62 1024.50 1024.46 1024.34 1024.18 1024.06 1023.90 1023.78 1023.66 1023.54 1023.42 1023.18 1023.02 1022.90 1022.70 1022.50 1022.18 1021.86 1021.46 1021.10 1020.74 1020.38 1020.02 1019.58 1019.26 1019.06 1019.02 1018.98 1018.90 1018.78 1018.70 1018.58 1018.54 1018.54 1018.54 1018.50 1018.42 1018.34 1018.22 1018.10 1017.94 1017.82 1017.78 1017.70 1017.62 1017.46
1025.54 1025.58 1025.58 1025.58 1025.58 1025.54 1025.50 1025.50 1025.50 1025.46 1025.42 1025.38 1025.34 1025.30 1025.26 1025.18 1025.10 1025.06 1024.94 1024.82 1024.78 1024.70 1024.62 1024.50 1024.38 1024.30 1024.18 1024.06 1023.90 1023.74 1023.58 1023.46 1023.34 1023.22 1023.06 1022.90 1022.74 1022.54 1022.30 1021.98 1021.66 1021.30 1020.94 1020.58 1020.18 1019.78 1019.42 1019.18 1018.98 1018.90 1018.86 1018.86 1018.78 1018.70 1018.62 1018.58 1018.54 1018.46 1018.34 1018.30 1018.18 1018.02 1017.86 1017.74 1017.62 1017.58 1017.50 1017.42 1017.18
1025.34 1025.42 1025.42 1025.38 1025.34 1025.34 1025.30 1025.30 1025.26 1025.22 1025.22 1025.18 1025.18 1025.14 1025.06 1025.06 1024.90 1024.82 1024.78 1024.62 1024.62 1024.58 1024.50 1024.34 1024.22 1024.10 1023.98 1023.86 1023.70 1023.58 1023.42 1023.30 1023.18 1023.06 1022.90 1022.74 1022.54 1022.34 1022.06 1021.78 1021.46 1021.14 1020.78 1020.46 1020.06 1019.62 1019.34 1019.10 1018.98 1018.86 1018.78 1018.78 1018.78 1018.70 1018.62 1018.54 1018.50 1018.34 1018.22 1018.06 1017.90 1017.78 1017.62 1017.54 1017.46 1017.42 1017.38 1017.26 1016.98
1025.10 1025.18 1025.18 1025.18 1025.14 1025.10 1025.06 1025.06 1025.06 1025.06 1025.06 1025.02 1024.98 1024.94 1024.90 1024.82 1024.74 1024.62 1024.54 1024.50 1024.46 1024.38 1024.30 1024.18 1024.06 1023.94 1023.78 1023.66 1023.54 1023.42 1023.30 1023.10 1022.98 1022.90 1022.74 1022.54 1022.34 1022.06 1021.82 1021.62 1021.34 1021.06 1020.66 1020.30 1019.90 1019.54 1019.26 1019.10 1019.02 1018.78 1018.66 1018.74 1018.74 1018.66 1018.62 1018.50 1018.42 1018.26 1018.06 1017.86 1017.66 1017.62 1017.54 1017.46 1017.42 1017.34 1017.30 1017.18 1017.02
1024.82 1024.90 1024.90 1024.90 1024.86 1024.82 1024.82 1024.82 1024.78 1024.78 1024.78 1024.78 1024.78 1024.74 1024.66 1024.58 1024.54 1024.50 1024.42 1024.34 1024.30 1024.22 1024.14 1024.06 1023.90 1023.82 1023.70 1023.54 1023.42 1023.30 1023.14 1022.98 1022.82 1022.66 1022.54 1022.34 1022.18 1021.90 1021.70 1021.50 1021.26 1020.94 1020.58 1020.22 1019.82 1019.46 1019.26 1019.14 1018.98 1018.78 1018.62 1018.62 1018.66 1018.66 1018.62 1018.50 1018.38 1018.18 1017.90 1017.66 1017.54 1017.50 1017.50 1017.50 1017.38 1017.30 1017.18 1017.14 1017.06
Wind_Speed
3 3 3 3 3 3 2 3 3 4 4 3 3 3 3 4 4 4 4 4 4 4 4 4 4 5 6 7 7 7 7 7 7 8 9 9 9 9 9 9 9 9 9 10 10 9 8 8 8 7 6 6 6 6 6 6 7 8 8 9 9 10 10 11 11 11 11 11 9
3 3 4 4 4 3 2 2 3 4 4 3 3 3 4 4 4 4 4 4 4 4 4 4 5 5 6 7 7 7 7 7 7 8 8 8 9 9 9 9 9 9 9 10 9 8 8 8 8 7 6 6 5 5 6 6 6 7 8 9 9 9 9 10 10 10 10 10 9
3 3 3 3 3 2 2 3 3 3 3 3 3 4 4 4 4 4 5 5 5 5 5 5 5 6 6 8 7 7 6 7 7 7 7 8 8 9 9 9 9 9 9 9 9 8 8 9 8 8 7 6 6 6 6 6 6 6 7 8 8 8 8 8 9 9 9 8 9
3 3 3 3 3 3 3 3 3 3 4 4 4 4 4 4 4 4 5 5 5 5 5 5 5 6 6 7 7 7 7 7 8 8 8 8 8 9 9 9 9 9 9 9 9 9 9 9 8 8 7 7 7 6 5 5 5 6 6 6 6 7 7 8 8 8 8 8 9
3 3 3 3 3 3 3 3 3 4 4 4 4 4 4 4 4 4 5 5 5 5 5 6 6 7 7 7 7 7 7 8 9 8 8 8 8 9 9 9 9 8 8 8 9 9 9 9 8 7 7 7 6 5 5 6 6 6 5 5 5 6 6 7 8 8 8 8 8
3 3 2 2 3 3 3 3 3 4 4 4 4 4 5 4 4 5 5 5 6 6 7 8 8 8 7 7 7 7 7 7 7 7 7 8 8 8 9 9 9 8 8 8 8 9 9 9 8 7 7 7 6 5 6 6 6 6 6 6 6 6 6 7 7 8 8 9 10
2 2 2 2 3 3 3 3 3 4 4 4 5 6 6 6 6 6 7 7 6 6 7 7 7 7 7 7 7 7 7 7 7 7 8 8 8 8 9 9 9 8 8 8 8 8 8 8 7 7 8 8 6 6 7 7 6 6 7 7 6 6 6 7 7 7 9 10 11
2 2 3 3 3 3 3 4 3 4 4 4 5 6 7 7 8 8 8 7 6 6 6 6 6 7 7 7 7 8 8 8 8 8 7 8 8 9 9 9 9 8 8 7 7 8 8 7 7 7 7 7 7 7 8 9 8 8 8 8 7 6 5 6 6 7 8 10 11
2 3 3 3 3 4 4 4 4 4 4 5 6 7 7 8 8 8 7 6 6 6 5 5 6 7 8 8 8 8 8 7 8 8 8 8 8 9 9 9 8 8 8 7 7 8 8 7 7 7 7 7 8 8 9 10 10 9 9 8 7 7 7 6 7 8 9 10 10
3 3 3 3 3 4 4 4 4 4 5 6 6 7 8 9 9 7 6 6 6 6 6 5 6 7 8 8 8 8 8 7 7 8 8 8 9 9 9 8 8 8 8 7 7 7 7 7 7 8 8 8 9 10 11 11 11 10 9 7 7 8 9 9 9 9 9 10 10
3 3 3 3 4 4 4 3 4 4 5 5 6 7 7 8 8 7 6 6 6 6 6 6 7 7 8 8 8 8 8 7 7 8 8 9 9 9 9 9 8 8 8 7 6 6 7 7 8 9 10 10 10 10 11 11 11 11 10 8 9 9 10 10 10 9 9 10 10
4 3 3 3 4 4 3 3 3 4 4 5 6 6 6 6 6 6 6 6 6 6 6 6 7 7 7 7 7 8 8 8 8 8 9 9 9 9 9 9 9 8 8 8 7 6 7 7 8 10 11 12 10 10 10 11 11 12 11 11 11 10 11 11 11 10 9 9 10
3 3 3 3 4 3 3 3 3 3 4 5 6 6 6 6 6 6 6 6 7 6 6 6 7 7 7 7 8 8 8 8 9 9 9 9 9 9 9 9 9 9 9 8 7 7 8 8 9 11 12 12 11 11 11 12 12 12 12 12 11 11 11 11 11 11 11 11 11
3 3 3 3 3 3 3 3 3 3 4 5 5 5 5 5 6 6 6 6 6 6 6 6 6 7 7 8 8 8 9 9 10 10 10 10 10 10 10 10 10 9 9 8 8 9 9 10 10 11 12 12 13 13 13 13 12 12 12 12 12 11 11 11 11 11 11 12 12
3 3 3 3 3 3 3 3 3 3 4 5 5 5 5 5 5 6 6 6 6 6 6 6 6 7 8 8 9 9 10 10 10 10 10 10 10 10 10 10 10 10 9 9 9 9 10 11 11 11 12 12 13 14 14 14 13 13 12 12 11 11 11 10 11 11 12 12 12
3 3 3 3 3 3 3 3 3 3 4 4 5 5 5 5 5 5 6 6 6 6 6 7 7 7 8 9 9 10 10 10 10 11 10 10 10 10 10 11 10 10 10 10 10 10 10 11 11 11 12 12 13 14 14 15 14 14 13 12 11 10 10 10 11 11 12 13 13
4 3 3 3 3 3 3 3 3 3 4 4 5 5 5 5 5 5 6 7 6 6 6 7 7 7 8 8 9 9 9 10 10 10 10 10 11 11 11 11 11 11 10 10 10 11 11 11 11 11 12 13 13 14 14 15 15 14 14 13 11 9 9 9 11 12 12 13 14
4 3 3 3 3 3 4 4 3 4 4 5 5 5 5 5 5 6 6 6 6 7 7 8 8 8 8 8 8 8 8 9 10 10 11 11 11 11 11 11 11 11 10 10 10 11 12 12 12 12 12 12 13 14 14 15 15 15 14 12 10 8 8 9 11 12 12 13 13
3 3 3 3 3 4 4 4 4 4 5 5 5 5 6 6 6 6 6 6 6 7 8 8 8 8 8 8 9 8 8 8 9 10 11 11 11 11 11 12 11 11 10 10 10 11 12 12 12 12 13 13 14 14 15 16 16 16 14 11 8 6 7 10 12 12 12 12 12
3 3 3 3 3 3 4 4 4 4 5 5 5 6 6 7 6 7 7 7 7 7 7 8 8 8 8 8 9 9 8 8 9 10 10 11 11 11 12 12 11 11 10 10 10 11 11 12 12 12 13 14 15 16 16 17 17 16 13 8 6 6 8 11 12 12 12 11 11
4 4 4 3 3 3 3 3 4 4 5 5 6 6 7 7 7 7 7 7 7 7 7 7 8 8 8 9 9 9 9 8 9 9 10 10 11 11 11 10 10 10 10 10 10 11 11 11 12 12 13 14 16 16 17 17 17 14 10 6 5 7 9 12 12 11 11 11 11
4 4 4 3 3 3 3 4 4 4 5 6 6 6 7 7 7 7 7 7 6 7 7 7 8 8 9 9 9 9 9 9 9 9 10 10 10 10 10 9 10 10 11 11 11 11 11 11 12 13 14 15 16 17 17 18 16 12 9 6 6 8 10 12 11 11 11 11 11
4 3 3 3 3 4 4 4 4 5 5 6 6 7 7 7 7 7 7 6 6 7 7 7 7 8 9 9 9 9 10 10 10 10 10 9 9 9 9 9 9 10 11 10 10 10 10 11 12 13 14 14 15 16 17 16 14 11 8 7 7 8 10 11 11 10 11 11 11
3 3 3 3 3 3 4 4 4 5 5 6 7 7 7 7 7 7 7 7 7 7 7 7 7 8 9 9 9 9 10 10 10 10 10 9 9 9 9 9 9 9 10 9 10 11 12 12 12 12 12 13 13 13 13 13 11 9 8 6 7 8 10 10 11 11 11 11 11
3 3 3 3 3 3 4 4 5 6 6 7 7 7 7 7 7 6 6 7 7 7 8 8 8 8 8 8 8 9 9 9 9 9 9 10 9 9 9 8 8 8 8 9 15 19 21 19 16 14 12 11 12 12 11 11 10 8 7 5 7 8 9 10 11 11 11 10 9
4 4 4 4 4 4 4 5 6 6 6 6 7 7 7 7 6 6 6 7 7 8 8 8 8 8 8 8 8 8 8 8 8 9 9 9 10 9 9 8 8 7 8 11 18 22 24 24 23 20 16 12 12 12 11 11 8 6 5 6 7 8 9 10 10 10 10 9 8
4 4 4 4 4 4 5 5 6 6 6 6 7 7 7 6 5 6 6 7 7 7 7 7 7 8 8 7 7 8 8 8 8 8 9 9 9 10 9 9 8 7 9 15 20 23 25 25 25 24 21 16 13 11 10 9 4 3 4 6 7 8 9 10 10 10 10 9 7
5 4 3 3 4 4 5 5 6 6 7 7 7 6 6 5 6 6 6 7 7 7 6 6 6 6 5 5 6 8 8 9 8 8 8 8 9 9 10 9 9 10 13 19 23 25 25 25 26 26 24 20 14 11 9 6 2 3 5 6 7 7 8 9 9 9 8 8 6
3 3 2 3 4 5 5 6 6 7 7 7 6 6 6 5 6 6 7 7 7 6 6 5 5 5 4 5 7 8 8 9 8 8 7 8 9 9 10 10 10 13 17 23 25 25 25 26 26 26 26 24 16 11 7 4 2 4 5 6 6 6 7 8 7 8 8 8 6
3 3 3 4 5 5 6 6 6 6 6 6 6 6 6 6 6 7 7 7 7 7 6 5 5 5 6 7 7 7 8 8 8 8 7 8 9 10 11 12 11 13 17 23 25 26 26 26 26 27 27 27 21 14 7 3 3 5 5 5 5 6 7 8 8 9 8 8 6
3 3 4 5 5 6 6 6 6 6 6 6 6 6 6 6 7 6 6 6 6 7 7 6 6 6 7 7 6 7 8 8 8 8 8 8 10 11 12 12 12 14 17 23 25 26 26 26 27 27 28 28 23 16 9 4 5 5 5 5 5 6 7 8 8 9 9 8 5
4 4 5 5 6 6 6 6 6 6 6 6 6 6 6 7 6 6 6 6 6 6 6 6 6 7 7 7 6 7 8 8 9 9 9 9 10 10 11 13 13 14 18 23 25 26 26 27 27 28 28 29 22 17 11 6 5 5 5 4 5 6 7 7 7 8 9 8 5
5 5 5 6 6 6 6 6 6 6 7 7 7 6 6 6 6 6 6 6 6 6 6 6 6 6 6 6 6 7 8 8 9 10 10 10 10 11 12 13 12 14 18 23 25 27 27 28 28 28 28 28 20 14 10 7 5 4 4 3 4 6 7 7 8 8 8 7 5
6 6 6 7 7 7 6 6 6 7 7 6 6 6 6 6 6 6 6 6 5 5 5 5 5 5 5 6 6 7 8 9 9 9 10 10 10 11 12 12 11 14 20 25 27 27 28 29 29 28 26 24 16 12 10 9 5 3 2 2 4 6 7 7 8 8 8 6 5
7 7 7 7 7 7 6 6 7 7 6 6 6 6 6 6 6 6 6 6 6 6 5 5 5 5 5 6 6 6 7 9 9 9 10 10 10 11 12 13 13 17 22 26 27 28 29 29 29 27 24 18 12 10 10 9 5 2 1 3 5 6 7 7 8 7 7 6 5
7 7 7 7 7 7 7 7 7 6 6 6 6 6 6 6 6 6 6 6 6 6 5 5 5 5 5 6 6 7 7 8 9 9 10 10 10 11 12 13 15 18 22 26 27 28 29 29 28 25 20 13 9 9 9 8 4 2 2 4 6 7 7 8 7 7 6 4 4
7 7 7 7 7 7 7 7 6 6 6 6 6 6 6 6 5 5 5 5 5 5 5 5 5 6 6 6 6 7 7 8 8 9 10 10 10 11 12 13 15 17 21 24 26 27 28 28 26 22 17 9 8 8 8 6 3 1 2 5 6 7 7 7 7 6 4 4 5
7 7 7 7 7 7 7 7 6 6 6 6 6 5 5 5 5 5 5 5 5 5 5 5 6 6 6 7 7 7 8 8 8 9 10 10 10 11 12 13 14 16 18 22 25 26 27 26 24 20 15 8 7 6 6 4 2 2 3 4 5 6 6 6 5 4 4 4 8
8 8 8 8 8 8 7 7 7 7 6 6 6 6 5 5 4 5 5 5 5 5 5 5 6 6 7 8 8 8 8 8 9 9 9 10 10 12 13 14 14 15 17 21 24 25 25 25 22 19 15 8 6 5 4 3 2 3 4 4 5 5 5 5 4 3 4 5 11
9 9 9 9 9 8 8 7 7 6 6 5 6 5 5 5 5 5 5 5 5 5 5 6 6 7 8 8 8 8 8 9 8 9 9 10 11 14 15 14 13 14 16 20 23 24 24 23 20 18 15 8 6 4 4 3 3 4 5 5 5 4 4 4 3 3 3 4 8
9 9 10 9 9 8 8 7 7 6 5 5 5 5 5 5 5 5 5 5 5 5 5 5 6 7 8 8 8 8 8 9 9 9 9 10 11 13 14 13 13 13 15 17 20 23 23 21 18 18 17 11 6 4 4 4 5 6 6 6 5 4 3 3 3 3 4 4 5
Wind_Direction
221 223 226 230 233 236 240 248 257 260 260 260 263 265 267 271 274 276 278 278 279 280 283 284 286 289 291 294 298 301 304 306 308 310 311 311 308 306 304 303 305 307 310 313 315 315 315 315 312 309 306 303 304 305 306 308 311 313 316 319 319 317 315 311 306 303 301 299 297
225 229 236 245 250 251 250 252 258 261 263 262 264 267 270 274 276 277 278 277 277 280 283 285 287 289 291 295 298 302 304 306 309 310 311 310 306 303 303 303 305 308 312 314 316 315 314 313 311 307 303 301 302 303 304 305 309 312 316 319 318 317 315 312 309 308 306 304 304
225 230 235 241 247 249 251 253 257 263 266 269 271 273 275 276 277 277 277 276 277 279 283 286 289 291 293 296 299 301 304 306 309 311 310 308 304 303 302 303 306 309 312 314 315 314 313 312 309 306 302 299 299 300 300 302 307 311 315 318 318 316 314 311 311 311 312 312 313
223 225 227 229 233 237 243 250 258 265 269 273 275 276 276 276 276 275 276 277 279 281 284 287 290 293 295 297 299 302 305 308 311 311 309 305 303 301 301 302 305 309 311 313 312 312 312 312 309 305 300 296 295 295 298 303 309 311 314 316 315 313 311 309 311 313 314 314 315
223 221 220 222 229 237 244 251 261 266 270 274 276 277 277 276 275 276 277 280 282 284 286 289 291 293 295 297 300 303 306 308 310 310 306 303 299 298 299 301 304 306 308 310 311 312 312 313 309 303 298 294 293 293 295 301 307 310 312 313 311 309 308 307 309 311 312 312 313
222 223 225 225 234 242 248 253 260 265 269 274 275 276 276 275 277 278 280 282 283 285 287 290 292 294 297 299 302 303 305 306 307 305 301 298 297 297 297 299 300 302 305 308 309 311 312 314 309 305 301 297 294 295 298 303 307 309 309 308 307 305 305 305 306 308 308 307 308
218 226 234 240 244 247 251 255 261 265 269 272 273 273 274 275 276 278 280 282 285 287 289 291 294 295 298 299 300 302 303 304 302 300 297 296 295 295 296 296 297 299 301 305 308 310 312 312 309 305 303 303 302 302 303 306 306 306 305 304 303 302 301 301 302 304 305 304 305
221 229 236 242 243 246 249 253 257 262 267 269 270 272 274 276 277 279 281 283 285 287 289 292 293 294 295 297 298 300 301 302 300 298 296 293 294 293 293 294 295 296 298 302 305 308 309 310 307 305 304 305 304 304 304 305 303 302 300 299 298 297 297 296 298 299 300 300 301
224 230 234 238 239 241 244 248 253 258 263 268 270 273 276 280 281 282 284 285 286 288 290 292 293 294 295 296 297 299 299 299 297 295 294 293 293 293 292 293 293 294 296 299 302 304 306 306 304 302 302 303 302 302 301 301 300 299 297 296 297 297 296 294 294 295 295 296 296
223 228 232 237 240 242 245 249 255 260 266 270 273 275 279 283 285 286 286 287 289 290 292 292 294 295 296 297 297 297 296 294 293 293 293 293 293 292 292 293 293 294 295 296 299 301 303 302 300 299 299 299 299 298 297 297 297 296 295 295 296 296 296 295 295 294 294 293 292
225 228 231 235 240 245 251 256 261 265 268 271 274 276 280 284 285 286 286 288 291 292 292 293 295 296 297 297 295 294 292 292 292 293 292 292 293 293 294 294 294 294 293 294 296 298 299 298 297 296 296 297 297 296 296 295 295 295 294 293 294 295 295 295 296 295 293 291 290
226 230 233 236 240 245 250 255 259 264 268 270 274 276 278 279 281 284 287 291 292 293 294 295 296 296 295 294 292 292 291 291 292 292 292 293 293 295 296 297 296 295 293 292 293 295 295 293 293 294 294 295 295 295 294 294 294 294 294 293 294 294 295 296 296 296 294 292 290
226 230 236 239 242 245 248 253 258 263 268 270 273 275 277 279 283 287 292 295 295 295 296 297 296 295 294 292 291 291 292 292 292 292 293 294 295 297 299 299 297 294 292 290 290 291 290 290 290 290 291 292 292 292 291 292 292 292 292 292 292 293 294 295 296 296 295 294 292
226 231 236 241 243 244 248 253 258 263 268 270 273 276 279 283 289 293 295 296 296 295 296 296 295 294 293 292 292 292 292 292 293 293 293 295 297 298 298 297 294 291 289 288 287 287 287 287 287 288 288 289 289 289 289 289 288 288 287 287 288 289 291 294 296 297 297 295 293
228 233 236 240 243 245 248 254 258 264 268 272 275 279 284 287 291 293 294 294 293 294 295 296 294 293 292 292 293 293 293 292 292 293 293 294 296 296 295 293 291 288 286 285 285 285 284 284 285 285 286 286 286 286 286 286 285 283 282 281 281 284 288 292 295 297 296 294 292
227 232 236 240 244 247 251 254 259 265 270 273 278 282 285 287 288 289 290 290 291 292 293 292 292 292 292 292 292 292 292 292 292 292 293 294 295 294 292 291 289 287 285 284 284 284 283 283 283 283 283 284 284 284 284 284 283 281 278 275 275 278 284 290 294 294 292 290 288
225 228 232 235 241 246 251 255 260 266 271 274 279 281 282 282 284 285 286 287 289 290 291 290 291 291 292 292 292 292 292 291 292 293 293 294 294 293 291 289 288 287 285 284 284 284 284 284 283 283 283 282 282 281 281 281 280 278 275 271 270 274 282 290 290 289 286 285 284
223 225 227 230 237 243 249 254 259 265 269 273 275 277 278 278 279 281 282 284 285 287 288 289 290 290 291 291 291 291 291 291 292 293 294 294 294 292 290 288 287 286 286 285 284 284 284 285 285 284 284 282 281 280 279 279 278 276 272 266 265 270 280 285 282 280 279 280 282
222 224 226 230 235 241 248 254 259 264 267 270 273 274 275 275 276 278 280 281 283 285 287 289 291 291 291 291 291 291 291 290 291 291 291 291 290 289 288 287 288 287 287 286 285 284 284 284 285 285 284 282 281 279 278 278 277 274 269 261 261 269 276 276 273 273 274 277 280
221 224 227 231 235 241 247 253 259 263 266 269 271 272 274 274 275 277 278 279 281 283 285 288 290 291 291 291 291 290 290 289 288 288 287 287 286 286 286 287 288 289 289 287 285 284 284 284 284 283 282 281 279 278 278 277 276 273 267 256 258 264 268 268 268 269 272 276 279
219 222 226 229 233 239 244 250 255 261 264 268 269 271 272 274 275 275 275 276 279 282 284 285 287 289 289 290 289 289 288 287 286 284 284 283 283 283 284 286 288 290 289 288 286 285 284 283 282 281 279 278 277 276 276 275 275 272 264 250 252 258 263 265 266 268 272 274 277
217 219 222 226 231 238 244 251 255 260 264 266 268 270 271 272 273 273 273 275 279 281 283 284 285 285 286 286 286 286 285 286 284 282 281 281 281 282 283 286 288 289 289 288 287 285 284 282 279 277 275 274 274 273 273 273 272 268 257 239 246 255 261 264 267 269 271 272 273
214 216 220 224 232 242 248 253 257 261 264 267 268 269 270 271 271 272 274 276 280 281 282 283 283 282 282 281 282 282 283 284 283 282 281 280 281 283 285 287 288 288 288 287 286 285 283 280 277 273 271 271 271 272 273 273 270 261 247 232 242 253 261 266 268 268 269 269 270
211 217 222 225 233 240 247 252 257 261 264 265 266 267 268 269 270 273 275 277 279 280 281 282 281 280 280 280 280 280 280 281 282 283 283 283 284 286 287 288 287 287 286 285 287 288 287 285 280 277 275 273 275 277 278 276 267 255 241 231 243 254 262 267 268 268 268 268 270
214 220 226 228 233 239 245 250 255 259 261 262 264 265 267 268 270 273 275 278 279 279 280 279 279 280 280 280 279 279 278 279 281 283 286 288 288 289 288 288 287 286 285 285 290 292 294 294 293 291 288 286 286 288 287 282 268 253 238 231 244 255 263 269 269 269 269 270 271
215 221 225 228 232 239 246 251 254 257 259 261 263 264 265 267 269 272 276 279 280 280 280 280 280 281 282 281 281 281 281 281 282 284 287 290 291 291 290 289 288 286 285 287 292 295 297 299 299 299 297 295 294 294 294 293 279 255 230 229 243 254 263 269 272 273 273 274 274
215 220 223 227 234 242 248 252 255 257 259 261 262 264 265 266 270 274 277 279 279 280 280 280 280 282 284 284 285 285 285 285 285 286 287 288 290 291 291 290 289 287 287 290 294 297 299 301 301 301 300 297 296 296 299 304 293 239 216 228 243 254 261 267 271 274 277 281 282
212 216 222 230 240 247 252 256 258 259 260 261 262 263 266 269 274 277 278 279 280 280 281 280 278 280 283 285 285 286 286 286 287 288 289 289 290 291 292 293 291 290 292 295 299 301 302 303 302 302 301 300 297 296 298 302 272 213 211 228 243 254 261 265 269 274 279 284 285
211 220 231 241 248 252 256 258 259 259 261 262 264 266 270 275 277 279 280 280 281 281 281 280 280 282 284 285 285 287 288 288 289 290 292 294 294 294 294 294 293 293 296 300 302 304 304 304 304 304 304 304 302 301 299 291 233 212 216 228 240 252 261 265 271 276 281 284 285
212 226 237 243 248 252 254 256 258 260 262 264 267 270 273 276 277 278 279 279 279 279 280 281 284 286 287 287 288 290 292 292 292 294 295 297 297 297 296 296 295 296 298 302 303 304 305 306 307 307 308 309 310 308 302 264 227 220 223 228 238 250 260 268 274 279 282 282 284
212 225 237 243 248 251 253 255 258 261 263 266 268 270 272 275 275 275 276 276 277 279 281 284 285 286 286 287 289 291 292 293 295 296 297 297 298 298 298 298 296 296 298 302 304 305 307 309 310 311 312 316 319 320 313 268 239 230 228 226 235 249 261 269 275 278 279 279 280
212 226 236 243 247 250 252 255 258 261 263 265 266 269 270 271 272 272 274 276 279 282 284 285 285 285 286 288 289 291 292 294 295 297 298 298 298 298 298 298 297 297 299 302 304 306 308 310 311 313 318 326 329 329 322 287 255 239 231 224 238 251 260 268 275 278 278 276 273
213 224 233 239 243 247 250 253 256 259 262 263 264 265 267 269 271 274 276 277 280 281 282 282 284 285 287 289 290 292 292 293 294 296 297 298 298 298 298 298 296 297 299 302 305 307 309 310 311 315 323 333 336 335 327 302 272 249 234 224 245 256 263 269 277 280 279 272 265
212 222 230 236 241 245 249 252 254 257 259 260 261 264 266 269 272 275 277 278 278 279 279 279 281 283 285 287 289 291 293 294 295 295 296 297 297 297 297 297 295 297 299 302 305 307 309 309 311 317 326 337 340 339 330 312 292 273 252 249 261 265 270 277 282 281 276 266 261
209 218 227 234 238 242 246 249 251 253 256 258 261 265 267 269 271 273 275 278 280 281 281 281 282 283 285 287 287 289 291 292 293 294 294 295 296 296 296 296 293 296 299 302 304 306 308 309 313 320 328 339 342 342 337 326 317 311 294 269 269 273 277 282 283 279 271 260 261
207 215 223 231 235 239 243 246 249 252 255 258 262 265 269 269 270 271 274 279 282 283 283 284 285 287 288 289 288 288 289 289 290 292 293 294 295 295 295 295 293 295 298 301 304 306 308 310 315 324 333 344 347 348 347 346 350 342 291 269 272 276 279 281 279 275 269 263 269
208 215 223 230 235 239 242 245 248 252 255 258 261 265 267 269 270 272 275 280 282 283 283 284 286 287 287 287 287 287 286 286 289 291 293 295 295 294 294 293 293 294 297 301 304 307 309 313 320 329 340 352 355 355 356 1 4 330 271 266 270 274 276 276 274 274 274 277 292
212 218 224 230 235 238 241 244 247 250 254 257 260 262 265 268 271 273 275 279 280 282 283 285 285 285 285 286 286 287 287 288 290 292 294 295 294 293 293 294 294 295 298 303 306 309 313 318 325 335 348 5 3 1 1 1 344 285 262 263 267 269 271 272 276 282 289 296 314
214 218 223 228 233 236 239 241 243 247 250 254 258 262 264 268 269 272 273 276 276 279 282 284 285 285 286 289 291 292 293 293 293 293 294 294 293 295 297 298 298 299 301 304 308 312 317 323 329 342 357 14 10 4 358 348 315 283 267 264 266 270 276 281 288 297 304 306 323
214 217 220 225 228 231 234 237 239 242 245 250 256 260 263 266 268 270 273 275 275 277 280 283 285 287 290 294 295 296 297 297 296 294 293 293 295 299 302 303 301 301 302 305 310 316 322 328 335 348 1 16 13 4 350 332 310 294 284 276 276 282 291 297 302 308 313 312 324
212 215 218 221 223 226 228 232 236 240 244 249 254 258 263 266 269 271 273 275 275 278 281 285 287 290 292 296 298 298 298 297 297 295 295 296 298 302 305 304 301 300 302 306 314 321 327 333 342 353 2 10 12 3 344 328 313 304 298 290 290 295 305 310 313 316 319 319 320